Waarnemingen

Advertentie
Mijn weer
F3, Nederland (6239): temperatuur & dauwpunt: 23.04.2017 19:00:00 - 29.04.2017 19:00:00 (CEST)F3, Nederland (6239): windsnelheid & windstoten: 23.04.2017 19:00:00 - 29.04.2017 19:00:00 (CEST)F3, Nederland (6239): windrichting: 23.04.2017 19:00:00 - 29.04.2017 19:00:00 (CEST)F3, Nederland (6239): luchtdruk: 23.04.2017 19:00:00 - 29.04.2017 19:00:00 (CEST)F3, Nederland (6239): zicht: 23.04.2017 19:00:00 - 29.04.2017 19:00:00 (CEST)
Datum & Tijd tt [°C] td [°C] ff [km/u] ff [kn] fx [km/u] fx [kn] dd ppp [hPa] vv [km]
29.04.2017 19:00:00 7,3 3,1 18 10 18 10 O 1018,3 10
29.04.2017 18:00:00 7,5 3,5 13 7 14 8 O 1018,4 10
29.04.2017 17:00:00 7,4 2,8 8 4 11 6 O 1018,5 10
29.04.2017 16:00:00 7,3 2,0 9 5 11 6 NO 1018,8 10
29.04.2017 15:00:00 7,0 1,5 5 3 11 6 NNO 1018,8 10
29.04.2017 14:00:00 6,8 1,6 4 2 11 6 - 1018,4 10
29.04.2017 13:00:00 6,6 1,2 9 5 11 6 NNW 1018,4 10
29.04.2017 12:00:00 6,5 1,0 9 5 14 8 NNW 1018,2 10
29.04.2017 11:00:00 6,4 0,9 11 6 14 8 NNW 1017,8 10
29.04.2017 10:00:00 6,3 0,3 13 7 18 10 NNW 1017,5 10
29.04.2017 09:00:00 6,4 -0,1 13 7 18 10 N 1017,2 10
29.04.2017 08:00:00 6,3 -0,4 18 10 18 10 NW 1016,6 10
29.04.2017 07:00:00 6,2 -0,2 16 9 22 12 NNW 1016,3 10
29.04.2017 06:00:00 6,3 0,7 21 11 25 14 NW 1015,9 10
29.04.2017 05:00:00 6,4 0,4 18 10 22 12 NW 1015,7 10
29.04.2017 04:00:00 6,4 0,8 21 11 22 12 WNW 1015,4 10
29.04.2017 03:00:00 6,3 0,7 18 10 18 10 NW 1015,2 10
29.04.2017 02:00:00 6,3 0,7 21 11 25 14 NW 1015,0 10
29.04.2017 01:00:00 6,5 1,4 24 13 25 14 NW 1014,8 10
29.04.2017 00:00:00 6,6 1,8 18 10 22 12 NW 1014,6 10
28.04.2017 23:00:00 6,7 2,6 22 12 25 14 NW 1014,6 10
28.04.2017 22:00:00 6,6 2,4 22 12 29 16 WNW 1014,4 10
28.04.2017 21:00:00 6,1 0,8 34 18 43 23 NW 1014,0 10
28.04.2017 20:00:00 6,8 2,1 34 18 32 18 WNW 1013,5 10
28.04.2017 19:00:00 6,3 2,3 26 14 36 19 NW 1013,4 10
28.04.2017 18:00:00 6,8 -0,7 31 17 36 19 NW 1013,1 10
28.04.2017 17:00:00 6,5 0,2 31 17 36 19 WNW 1012,8 10
28.04.2017 16:00:00 6,0 1,3 29 16 32 18 NNW 1012,8 10
28.04.2017 15:00:00 5,2 0,4 35 19 43 23 NNW 1012,6 10
28.04.2017 14:00:00 6,6 -0,4 31 17 32 18 NW 1012,3 10
28.04.2017 13:00:00 6,7 -0,1 28 15 32 18 NW 1012,3 10
28.04.2017 12:00:00 6,5 1,1 34 18 36 19 NW 1012,1 10
28.04.2017 11:00:00 6,7 0,6 21 11 36 19 NNW 1012,1 10
28.04.2017 10:00:00 6,1 2,1 24 13 40 21 NNW 1011,8 10
28.04.2017 09:00:00 6,7 2,0 29 16 36 19 NNW 1011,6 10
28.04.2017 08:00:00 5,7 2,7 46 25 43 23 NNW 1011,4 10
28.04.2017 07:00:00 6,7 3,6 21 11 36 19 NNW 1010,8 10
28.04.2017 06:00:00 6,7 3,7 11 6 29 16 WNW 1010,8 10
28.04.2017 05:00:00 6,8 3,7 22 12 29 16 NW 1010,6 10
28.04.2017 04:00:00 7,2 3,6 18 10 25 14 WNW 1010,9 10
28.04.2017 03:00:00 7,1 3,3 26 14 25 14 NW 1011,3 10
28.04.2017 02:00:00 7,2 3,3 29 16 29 16 NW 1011,3 10
28.04.2017 01:00:00 7,3 3,6 31 17 32 18 NNW 1011,0 10
28.04.2017 00:00:00 7,3 4,6 21 11 25 14 NW 1011,2 10
27.04.2017 23:00:00 6,9 5,3 24 13 29 16 NNW 1011,1 10
27.04.2017 22:00:00 7,3 4,5 26 14 25 14 NW 1010,9 10
27.04.2017 21:00:00 7,1 4,4 24 13 32 18 NW 1010,6 10
27.04.2017 20:00:00 7,2 3,3 34 18 32 18 WNW 1010,2 10
27.04.2017 19:00:00 7,5 5,4 29 16 29 16 WNW 1010,1 10
27.04.2017 18:00:00 7,7 5,7 34 18 43 23 W 1009,9 10
27.04.2017 17:00:00 7,7 6,4 35 19 36 19 W 1009,9 10
27.04.2017 16:00:00 7,5 6,5 35 19 36 19 W 1009,9 10
27.04.2017 15:00:00 7,5 6,3 35 19 40 21 W 1010,0 10
27.04.2017 14:00:00 7,2 5,9 44 24 43 23 W 1009,9 10
27.04.2017 13:00:00 6,8 5,7 46 25 50 27 WZW 1010,1 10
27.04.2017 12:00:00 6,4 4,6 44 24 50 27 WZW 1010,5 10
27.04.2017 11:00:00 5,9 4,0 50 27 50 27 WZW 1011,1 10
27.04.2017 10:00:00 5,7 3,6 44 24 43 23 WZW 1012,0 10
27.04.2017 09:00:00 5,6 2,5 41 22 40 21 W 1012,6 10
27.04.2017 08:00:00 5,5 1,7 35 19 40 21 W 1013,1 10
27.04.2017 07:00:00 5,3 2,5 31 17 36 19 W 1013,3 10
27.04.2017 06:00:00 5,0 1,3 34 18 43 23 W 1013,7 10
27.04.2017 05:00:00 5,0 1,7 18 10 43 23 W 1014,1 10
27.04.2017 04:00:00 4,7 1,1 29 16 43 23 WNW 1014,4 10
27.04.2017 03:00:00 6,0 0,0 28 15 32 18 NW 1014,9 10
27.04.2017 02:00:00 6,1 0,0 29 16 32 18 NW 1015,2 10
27.04.2017 01:00:00 6,2 -0,6 31 17 32 18 WNW 1015,5 10
27.04.2017 00:00:00 6,3 -0,9 28 15 32 18 NW 1015,6 10
26.04.2017 23:00:00 6,1 1,2 21 11 29 16 NNW 1015,8 10
26.04.2017 22:00:00 6,1 -0,4 31 17 36 19 NNW 1015,7 10
26.04.2017 21:00:00 6,4 -1,5 18 10 32 18 - 1015,6 10
26.04.2017 20:00:00 6,5 1,5 22 12 36 19 - 1015,2 10
26.04.2017 19:00:00 6,8 0,1 26 14 32 18 N 1014,7 10
26.04.2017 18:00:00 6,8 1,2 31 17 36 19 NNW 1014,3 10
26.04.2017 17:00:00 6,7 0,4 28 15 29 16 NNW 1014,4 10
26.04.2017 16:00:00 6,7 -0,5 24 13 29 16 NNW 1014,2 10
26.04.2017 15:00:00 6,7 0,2 22 12 32 18 NNW 1014,0 10
26.04.2017 14:00:00 6,8 0,5 24 13 29 16 N 1013,7 10
26.04.2017 13:00:00 6,7 0,5 26 14 29 16 NNW 1013,2 10
26.04.2017 12:00:00 6,7 0,8 26 14 32 18 N 1012,9 10
26.04.2017 11:00:00 6,7 1,1 24 13 36 19 N 1012,4 10
26.04.2017 10:00:00 6,8 1,3 24 13 36 19 - 1011,9 10
26.04.2017 09:00:00 6,9 2,0 18 10 36 19 - 1011,4 10
26.04.2017 08:00:00 6,9 2,4 16 9 36 19 - 1010,8 10
26.04.2017 07:00:00 4,9 1,0 21 11 36 19 NNO 1010,4 10
26.04.2017 06:00:00 4,5 0,7 21 11 47 25 - 1009,3 10
26.04.2017 05:00:00 5,5 -0,8 31 17 40 21 - 1009,4 10
26.04.2017 04:00:00 6,7 -0,8 28 15 32 18 NNW 1009,1 10
26.04.2017 03:00:00 6,6 -0,1 28 15 32 18 NNW 1009,1 10
26.04.2017 02:00:00 6,6 0,1 26 14 32 18 N 1009,1 10
26.04.2017 01:00:00 6,6 -1,6 28 15 32 18 NNW 1008,8 10
26.04.2017 00:00:00 6,5 0,1 29 16 36 19 NNW 1008,4 10
25.04.2017 23:00:00 6,5 -0,5 26 14 36 19 NNW 1008,2 10
25.04.2017 22:00:00 6,6 -0,6 31 17 36 19 NNW 1007,9 10
25.04.2017 21:00:00 6,6 -0,7 35 19 36 19 NNW 1007,5 10
25.04.2017 20:00:00 6,6 -0,8 31 17 40 21 NNW 1007,0 10
25.04.2017 19:00:00 6,4 0,1 21 11 47 25 NNW 1006,8 10
25.04.2017 18:00:00 6,2 -0,2 28 15 29 16 NNW 1006,4 10
25.04.2017 17:00:00 5,4 0,8 29 16 36 19 N 1006,0 10
25.04.2017 16:00:00 5,6 1,0 22 12 25 14 WNW 1005,2 10
25.04.2017 15:00:00 5,2 1,0 26 14 29 16 WNW 1005,0 10
25.04.2017 14:00:00 4,6 1,2 29 16 32 18 W 1004,6 10
25.04.2017 13:00:00 4,6 0,9 42 23 43 23 W 1004,5 10
25.04.2017 12:00:00 5,3 -3,1 31 17 36 19 W 1004,6 10
25.04.2017 11:00:00 5,2 -2,4 34 18 40 21 WNW 1004,5 10
25.04.2017 10:00:00 5,0 -4,0 41 22 40 21 NW 1004,3 10
25.04.2017 09:00:00 4,8 -2,3 39 21 47 25 NW 1004,1 10
25.04.2017 08:00:00 5,0 -2,6 39 21 40 21 NNW 1003,5 10
25.04.2017 07:00:00 4,5 0,3 18 10 40 21 - 1003,2 10
25.04.2017 06:00:00 3,8 0,6 35 19 47 25 - 1003,2 10
25.04.2017 05:00:00 3,1 1,6 35 19 36 19 NNO 1002,2 10
25.04.2017 04:00:00 4,3 0,7 15 8 29 16 - 1002,6 10
25.04.2017 03:00:00 4,0 0,7 11 6 29 16 WZW 1002,6 10
25.04.2017 02:00:00 4,6 2,6 26 14 25 14 ZZO 1003,3 10
25.04.2017 01:00:00 4,6 1,8 16 9 22 12 Z 1004,1 10
25.04.2017 00:00:00 4,3 1,6 15 8 22 12 Z 1004,7 10
24.04.2017 23:00:00 4,1 2,0 29 16 29 16 ZW 1005,6 10
24.04.2017 22:00:00 3,7 0,5 11 6 25 14 - 1006,5 5
24.04.2017 21:00:00 4,9 1,3 4 2 14 8 - 1006,7 10
24.04.2017 20:00:00 4,5 0,8 8 4 29 16 W 1007,7 10
24.04.2017 19:00:00 6,3 -0,7 9 5 14 8 WNW 1008,2 10
24.04.2017 18:00:00 6,6 -0,3 16 9 18 10 WNW 1008,6 10
24.04.2017 17:00:00 6,4 -0,5 16 9 18 10 NW 1009,2 10
24.04.2017 16:00:00 6,3 0,0 18 10 29 16 NNW 1009,4 10
24.04.2017 15:00:00 6,4 1,4 21 11 29 16 NW 1009,7 10
24.04.2017 14:00:00 6,4 1,2 26 14 32 18 NNW 1009,7 10
24.04.2017 13:00:00 6,5 2,9 26 14 36 19 NNW 1009,4 10
24.04.2017 12:00:00 6,3 3,4 41 22 50 27 WNW 1009,0 10
24.04.2017 11:00:00 7,3 3,4 50 27 58 31 WNW 1008,6 10
24.04.2017 10:00:00 7,6 4,7 52 28 58 31 WNW 1008,1 10
24.04.2017 09:00:00 8,2 6,3 52 28 50 27 W 1008,0 10
24.04.2017 08:00:00 8,1 6,3 52 28 50 27 WZW 1008,4 10
24.04.2017 07:00:00 8,3 5,8 52 28 50 27 W 1008,9 10
24.04.2017 06:00:00 8,1 6,0 48 26 47 25 WZW 1009,5 10
24.04.2017 05:00:00 8,2 5,9 46 25 50 27 WZW 1010,5 10
24.04.2017 04:00:00 8,1 6,3 52 28 58 31 WZW 1011,5 10
24.04.2017 03:00:00 8,0 5,9 57 31 54 29 ZW 1012,7 10
24.04.2017 02:00:00 7,9 5,5 54 29 54 29 ZW 1014,1 10
24.04.2017 01:00:00 7,8 4,7 50 27 50 27 ZW 1015,6 10
24.04.2017 00:00:00 7,6 5,0 46 25 47 25 ZW 1017,0 10
23.04.2017 23:00:00 7,4 5,2 39 21 40 21 ZW 1018,3 10
23.04.2017 22:00:00 7,2 4,0 35 19 32 18 ZW 1019,5 10
23.04.2017 21:00:00 7,4 3,9 29 16 32 18 WZW 1020,2 10
23.04.2017 20:00:00 7,5 3,2 31 17 32 18 W 1020,8 10
23.04.2017 19:00:00 7,4 2,5 34 18 32 18 W 1021,4 10

tt = temperatuur
td = dauwpunt
ff = windsnelheid
fx = windstoten
dd = windrichting
ppp = luchtdruk
vv = zicht

Weerstations in de omgeving